Weather in Yuzhnyy

Russia / Ryazan Oblast     53°32′32″N   39°26′52″E
temp.,
°C
wind,
m/s
gust,
m/s
humid.,
%
clouds,
%
prec.,
mm/h
press.,
hPa
HPBL,
m
27 february, sat
sat2700:000w7169169 0.0 1006471
03:00+1w8149076 0.0 1005656
06:00+1wnw7149186 0.0 1003816
09:00+1wnw8159393 0.1 1004934
12:000nnw8149597 0.3 1006892
15:00−5nnw7128687 0.3 1008638
18:00−8nnw4109194 0.0 1011300
21:00−10nnw369581 0.0 1013108
28 february, sun
sun2800:00−9nnw369667 0.0 1014148
03:00−10nw359670 0.1 1015109
06:00−11nnw359681 0.0 1016106
09:00−8nnw379477 0.1 1016278
12:00−5nw359486 0.1 1016293
15:00−3nw349386 0.1 1016351
18:00−3nnw2495100 0.0 1016159
21:00−4ne2296100 0.1 101946
1 march, mon
mon100:00−6wnw009694 0.0 102021
03:00−7nw229794 0.1 102221
06:00−8wnw229685 0.1 102321
09:00−7wnw229682 0.1 102526
12:00−4w239222 0.0 1025251
15:00−2wsw359549 0.0 1025283
18:00−5wsw479653 0.0 1023129
21:00−2wsw5109571 0.0 1022385
2 march, tue
tue200:00−1wsw61294100 0.1 1019569
03:000wsw81493100 0.3 1016540
06:00+1w81493100 0.1 1012808
09:00+1wnw81498100 0.3 1011855
12:00+1nw7139787 0.2 1012837
15:00+1nw6119192 0.4 1012928
18:00−1wnw5119164 0.1 1012321
21:000nw5138682 0.3 1013749
3 march, wed
wed300:00−2nnw41095100 0.6 1014649
03:00−2nw51195100 0.8 1014442
06:00−3nw6129396 0.1 1015546
09:00−3nnw7118797 0.1 1017775
12:00−2nw7119190 0.0 1018773
15:00−1nw698896 0.1 1018882
18:00−2nw51089100 0.0 1018541
21:00−2wnw31091100 0.1 1019464